CW3340 Weather Reports


Display with metric or nautical units.
time (UTC)temp
F
wind
direction
speed
MPH
gust
MPH
rain 1hr
in
rain 24hr
in
rain mn
in
humidity
%
barometer
mb
20260504192605 64 193 12.0 20.0 0.00 0.00 0.00 60 1010.8
20260504192104 64 224 10.0 18.0 0.00 0.00 0.00 59 1010.8
20260504191605 65 200 7.0 22.0 0.00 0.00 0.00 61 1010.9
20260504191105 64 196 6.0 22.0 0.00 0.00 0.00 61 1011.0
20260504190604 64 187 9.0 20.0 0.00 0.00 0.00 60 1011.0
20260504190105 65 205 8.0 18.0 0.00 0.00 0.00 59 1011.1
20260504185606 65 193 8.0 20.0 0.00 0.00 0.00 60 1011.3
20260504185105 65 198 10.0 20.0 0.00 0.00 0.00 59 1011.2
20260504184605 65 179 9.0 17.0 0.00 0.00 0.00 59 1011.3
20260504184104 65 181 5.0 22.0 0.00 0.00 0.00 60 1011.3
20260504183605 65 176 9.0 22.0 0.00 0.00 0.00 58 1011.4
20260504183104 65 188 10.0 16.0 0.00 0.00 0.00 59 1011.4
20260504182605 66 199 5.0 16.0 0.00 0.00 0.00 58 1011.4
20260504182104 65 217 7.0 16.0 0.00 0.00 0.00 58 1011.5
20260504181605 65 179 9.0 16.0 0.00 0.00 0.00 59 1011.5
20260504181105 65 185 8.0 16.0 0.00 0.00 0.00 59 1011.6
20260504180604 65 186 9.0 16.0 0.00 0.00 0.00 59 1011.7
20260504180106 65 187 8.0 16.0 0.00 0.00 0.00 59 1011.7
20260504175605 65 189 9.0 16.0 0.00 0.00 0.00 59 1011.7
20260504175104 66 183 7.0 15.0 0.00 0.00 0.00 58 1011.8
20260504174604 65 181 7.0 15.0 0.00 0.00 0.00 59 1011.7
20260504174105 65 175 10.0 16.0 0.00 0.00 0.00 60 1011.8
20260504173605 65 178 10.0 16.0 0.00 0.00 0.00 60 1011.9
20260504173104 65 180 7.0 17.0 0.00 0.00 0.00 60 1011.9
20260504172605 65 178 6.0 17.0 0.00 0.00 0.00 59 1011.9
20260504172104 66 181 9.0 16.0 0.00 0.00 0.00 58 1012.0
20260504171605 65 189 9.0 16.0 0.00 0.00 0.00 57 1012.0
20260504171104 67 205 5.0 14.0 0.00 0.00 0.00 55 1012.0
20260504170605 65 195 7.0 16.0 0.00 0.00 0.00 55 1012.1
20260504170106 65 198 8.0 16.0 0.00 0.00 0.00 55 1012.2
20260504160105 65 165 6.0 17.0 0.00 0.00 0.00 51 1012.8
20260504151104 66 201 6.0 14.0 0.00 0.00 0.00 44 1013.4
20260504150605 65 189 4.0 14.0 0.00 0.00 0.00 44 1013.5
20260504150105 65 149 5.0 17.0 0.00 0.00 0.00 45 1013.5
20260504141104 62 253 8.0 17.0 0.00 0.00 0.00 48 1013.6
20260504140604 62 258 11.0 17.0 0.00 0.00 0.00 47 1013.7
20260504140106 61 3 5.0 14.0 0.00 0.00 0.00 49 1013.7
20260504130605 58 273 5.0 17.0 0.00 0.00 0.00 59 1014.2
20260504130106 57 305 9.0 17.0 0.00 0.00 0.00 59 1014.3
20260504120106 54 238 6.0 14.0 0.00 0.00 0.00 63 1014.5
20260504110605 51 244 5.0 8.0 0.00 0.00 0.00 66 1014.6
20260504110106 51 247 2.0 6.0 0.00 0.00 0.00 67 1014.6
20260504100605 51 239 5.0 12.0 0.00 0.00 0.00 65 1014.4
20260504100106 51 212 6.0 12.0 0.00 0.00 0.00 65 1014.4
20260504090106 51 274 6.0 15.0 0.00 0.00 0.00 63 1014.0
20260504081605 51 254 4.0 12.0 0.00 0.00 0.00 59 1013.8
20260504081105 51 261 5.0 12.0 0.00 0.00 0.00 60 1013.8
20260504080605 51 269 3.0 14.0 0.00 0.00 0.00 61 1013.7
20260504080106 51 275 6.0 14.0 0.00 0.00 0.00 63 1013.7
20260504070106 52 257 5.0 9.0 0.00 0.00 0.00 59 1013.3
20260504060106 52 246 5.0 12.0 0.00 0.00 0.00 57 1013.3
20260504050605 53 255 6.0 12.0 0.00 0.00 0.00 60 1013.0
20260504050106 53 228 5.0 12.0 0.00 0.00 0.00 58 1013.0
20260504045605 53 263 5.0 12.0 0.00 0.00 0.00 57 1013.0
20260504045105 53 256 5.0 12.0 0.00 0.00 0.00 58 1013.0
20260504044605 53 257 5.0 12.0 0.00 0.00 0.00 59 1012.9
20260504044105 53 305 4.0 8.0 0.00 0.00 0.00 60 1012.9
20260504043605 53 260 3.0 8.0 0.00 0.00 0.00 60 1012.9
20260504043105 53 273 3.0 8.0 0.00 0.00 0.00 60 1012.9
20260504042605 53 274 4.0 8.0 0.00 0.00 0.00 59 1012.9
20260504042105 53 272 5.0 9.0 0.00 0.00 0.00 58 1012.9
20260504041605 53 255 5.0 12.0 0.00 0.00 0.00 57 1012.8
20260504041105 53 243 5.0 12.0 0.00 0.00 0.00 56 1012.8
20260504040605 53 253 5.0 9.0 0.00 0.00 0.00 56 1012.8
20260504040106 53 250 3.0 12.0 0.00 0.00 0.00 56 1012.8
20260504035605 54 251 4.0 12.0 0.00 0.00 0.00 55 1012.7
20260504035105 54 256 6.0 12.0 0.00 0.00 0.00 54 1012.7
20260504034605 54 199 4.0 10.0 0.00 0.00 0.00 53 1012.8
20260504034105 54 244 5.0 10.0 0.00 0.00 0.00 53 1012.7
20260504033605 54 302 5.0 7.0 0.00 0.00 0.00 52 1012.6
20260504033105 54 234 3.0 8.0 0.00 0.00 0.00 52 1012.6
20260504032605 54 247 5.0 8.0 0.00 0.00 0.00 52 1012.5
20260504032105 54 228 3.0 7.0 0.00 0.00 0.00 52 1012.6
20260504031605 54 216 2.0 7.0 0.00 0.00 0.00 52 1012.6
20260504031105 54 232 4.0 7.0 0.00 0.00 0.00 52 1012.5
20260504030605 53 234 2.0 7.0 0.00 0.00 0.00 54 1012.5
20260504030106 54 214 2.0 9.0 0.00 0.00 0.00 55 1012.5
20260504025605 54 238 3.0 9.0 0.00 0.00 0.00 56 1012.5
20260504025105 54 252 2.0 7.0 0.00 0.00 0.00 56 1012.5
20260504024605 54 266 3.0 7.0 0.00 0.00 0.00 57 1012.5
20260504024105 54 251 2.0 8.0 0.00 0.00 0.00 57 1012.6
20260504023605 54 249 3.0 8.0 0.00 0.00 0.00 56 1012.6
20260504023105 54 230 3.0 7.0 0.00 0.00 0.00 55 1012.6
20260504022605 54 241 3.0 7.0 0.00 0.00 0.00 54 1012.6
20260504022105 54 257 2.0 7.0 0.00 0.00 0.00 52 1012.6
20260504021605 54 231 4.0 7.0 0.00 0.00 0.00 53 1012.6
20260504021105 54 254 1.0 5.0 0.00 0.00 0.00 53 1012.6
20260504020605 54 214 2.0 5.0 0.00 0.00 0.00 53 1012.6
20260504020106 53 214 2.0 3.0 0.00 0.00 0.00 51 1012.5
20260504015605 53 227 2.0 3.0 0.00 0.00 0.00 50 1012.5
20260504015105 53 243 2.0 3.0 0.00 0.00 0.00 49 1012.4
20260504014605 54 227 2.0 3.0 0.00 0.00 0.00 48 1012.4
20260504014105 54 227 1.0 3.0 0.00 0.00 0.00 47 1012.4
20260504013605 54 227 1.0 3.0 0.00 0.00 0.00 46 1012.4
20260504013105 54 238 1.0 3.0 0.00 0.00 0.00 46 1012.3
20260504012605 54 209 1.0 3.0 0.00 0.00 0.00 45 1012.2
20260504012105 55 217 2.0 3.0 0.00 0.00 0.00 43 1012.1
20260504011605 55 263 1.0 3.0 0.00 0.00 0.00 41 1012.1
20260504011105 55 263 1.0 3.0 0.00 0.00 0.00 40 1012.0
20260504010605 56 247 1.0 3.0 0.00 0.00 0.00 40 1011.9
20260504010106 56 259 1.0 6.0 0.00 0.00 0.00 38 1011.9
20260504005605 56 259 1.0 6.0 0.00 0.00 0.00 36 1011.9
20260504005105 56 244 3.0 3.0 0.00 0.00 0.00 34 1011.8
20260504004605 57 238 2.0 3.0 0.00 0.00 0.00 33 1011.8
20260504004105 57 284 1.0 3.0 0.00 0.00 0.00 33 1011.7
20260504003605 57 277 2.0 3.0 0.00 0.00 0.00 32 1011.6
20260504003105 57 290 2.0 3.0 0.00 0.00 0.00 32 1011.5
20260504002605 58 302 2.0 3.0 0.00 0.00 0.00 31 1011.4
20260504002105 58 282 2.0 8.0 0.00 0.00 0.00 30 1011.3
20260504001606 58 274 2.0 10.0 0.00 0.00 0.00 30 1011.3
20260504001105 58 314 2.0 10.0 0.00 0.00 0.00 30 1011.2
20260504000605 58 290 2.0 9.0 0.00 0.00 0.00 30 1011.1
20260504000106 58 258 2.0 10.0 0.00 0.00 0.00 30 1011.1
20260503235605 59 300 6.0 10.0 0.00 0.00 0.00 29 1011.0
20260503235105 59 297 6.0 10.0 0.00 0.00 0.00 29 1010.9
20260503234605 59 290 5.0 10.0 0.00 0.00 0.00 28 1010.9
20260503234105 59 289 4.0 12.0 0.00 0.00 0.00 28 1010.9
20260503233605 59 278 4.0 12.0 0.00 0.00 0.00 28 1010.8
20260503233105 59 332 5.0 12.0 0.00 0.00 0.00 28 1010.8
20260503232605 59 304 6.0 13.0 0.00 0.00 0.00 28 1010.7
20260503232105 60 331 7.0 18.0 0.00 0.00 0.00 27 1010.6
20260503231605 60 317 9.0 18.0 0.00 0.00 0.00 27 1010.6
20260503231105 60 317 9.0 17.0 0.00 0.00 0.00 27 1010.6
20260503230605 60 299 7.0 17.0 0.00 0.00 0.00 27 1010.5
20260503230106 60 292 6.0 16.0 0.00 0.00 0.00 27 1010.5
20260503225605 60 298 6.0 16.0 0.00 0.00 0.00 26 1010.5
20260503225105 60 314 6.0 15.0 0.00 0.00 0.00 26 1010.5
20260503224605 61 325 5.0 12.0 0.00 0.00 0.00 26 1010.6
20260503224105 61 319 4.0 14.0 0.00 0.00 0.00 26 1010.4
20260503223605 61 285 5.0 15.0 0.00 0.00 0.00 26 1010.4
20260503223105 61 292 4.0 17.0 0.00 0.00 0.00 26 1010.4
20260503222605 61 302 7.0 17.0 0.00 0.00 0.00 26 1010.3
20260503222105 61 307 5.0 17.0 0.00 0.00 0.00 26 1010.3
20260503221605 61 295 7.0 15.0 0.00 0.00 0.00 25 1010.4
20260503221105 61 295 5.0 20.0 0.00 0.00 0.00 26 1010.4
20260503220605 61 318 6.0 21.0 0.00 0.00 0.00 26 1010.4
20260503220106 61 343 9.0 21.0 0.00 0.00 0.00 26 1010.5
20260503215605 61 289 12.0 18.0 0.00 0.00 0.00 26 1010.4
20260503215105 61 314 10.0 17.0 0.00 0.00 0.00 26 1010.4
20260503214605 61 328 6.0 18.0 0.00 0.00 0.00 27 1010.4
20260503214105 61 303 10.0 23.0 0.00 0.00 0.00 26 1010.4
20260503213605 61 304 10.0 23.0 0.00 0.00 0.00 27 1010.4
20260503213105 61 312 9.0 23.0 0.00 0.00 0.00 26 1010.3
20260503212605 61 312 13.0 23.0 0.00 0.00 0.00 26 1010.3
20260503212105 61 270 14.0 23.0 0.00 0.00 0.00 26 1010.1
20260503211607 61 319 8.0 18.0 0.00 0.00 0.00 27 1010.2
20260503211105 61 295 7.0 20.0 0.00 0.00 0.00 27 1010.1
20260503210605 61 335 10.0 20.0 0.00 0.00 0.00 27 1010.1
20260503210106 61 332 7.0 20.0 0.00 0.00 0.00 27 1010.0
20260503205605 60 11 7.0 23.0 0.00 0.00 0.00 27 1010.1
20260503205105 60 286 10.0 23.0 0.00 0.00 0.00 27 1010.1
20260503204605 60 293 13.0 28.0 0.00 0.00 0.00 27 1010.1
20260503204105 60 306 12.0 28.0 0.00 0.00 0.00 27 1010.2
20260503203605 60 325 8.0 22.0 0.00 0.00 0.00 28 1010.1
20260503203105 60 324 7.0 22.0 0.00 0.00 0.00 28 1010.1
20260503202605 60 311 10.0 20.0 0.00 0.00 0.00 28 1010.2
20260503202105 60 296 10.0 21.0 0.00 0.00 0.00 29 1010.1
20260503201605 60 279 12.0 21.0 0.00 0.00 0.00 28 1010.1
20260503201105 60 306 10.0 20.0 0.00 0.00 0.00 28 1010.3
20260503200605 60 314 9.0 26.0 0.00 0.00 0.00 29 1010.3
20260503200106 60 352 12.0 26.0 0.00 0.00 0.00 29 1010.3
20260503195605 60 318 11.0 22.0 0.00 0.00 0.00 29 1010.3
20260503195105 60 281 11.0 22.0 0.00 0.00 0.00 29 1010.3
20260503194605 60 282 11.0 21.0 0.00 0.00 0.00 30 1010.4
20260503194105 60 343 7.0 16.0 0.00 0.00 0.00 30 1010.4
20260503193605 59 296 6.0 17.0 0.00 0.00 0.00 31 1010.5
20260503193105 59 300 11.0 20.0 0.00 0.00 0.00 30 1010.6